Regional Weather Roundup
Issued by NWS Sioux Falls, SD

Home | Current Version | Previous Version | Text Only | Print | Product List | Glossary On
Versions: 1 2 3 4 5 6 7 8 9 10 11 12 13 14 15 16 17 18 19 20 21 22 23 24 25 26 27 28 29 30 31 32 33 34 35 36 37 38 39 40 41 42 43 44 45 46 47 48 49 50
000
ASUS43 KFSD 302302
RWRFSD

WEATHER ROUNDUP FOR SE SOUTH DAKOTA/SW MINNESOTA/NW IOWA
NATIONAL WEATHER SERVICE SIOUX FALLS SD
600 PM CDT THU JUL 30 2015

NOTE: "FAIR" INDICATES FEW OR NO CLOUDS BELOW 12,000 FEET WITH NO
SIGNIFICANT WEATHER AND OR OBSTRUCTIONS TO VISIBILITY.


SDZ038>040-050-052>070-310000-
SOUTHEAST SOUTH DAKOTA

CITY           SKY/WX    TMP DP  RH WIND       PRES   REMARKS
BROOKINGS      SUNNY     82  54  36 W10       30.12F
CHAMBERLAIN    SUNNY     88  46  23 N6        30.12F
HURON          SUNNY     87  54  32 W9        30.09S
MADISON        FAIR      82  55  39 NW9       30.13S
MITCHELL       SUNNY     90  57  32 CALM      30.10F
SIOUX FALLS    MOSUNNY   85  57  38 NW7       30.11F
WINNER         FAIR      91  48  22 NW9       30.14F
YANKTON        SUNNY     88  63  42 NW7       30.08F
$$

MNZ071-072-080-081-089-090-097-098-310000-
SOUTHWEST MINNESOTA

CITY           SKY/WX    TMP DP  RH WIND       PRES   REMARKS
FAIRMONT       SUNNY     84  57  39 W8        30.09F
JACKSON        SUNNY     84  59  42 W10       30.12S
LUVERNE        SUNNY     86  59  39 W7        30.12S
MARSHALL       SUNNY     84  54  34 W14G20    30.09F
MONTEVIDEO     SUNNY     88  59  37 NW9       30.07F
PIPESTONE      SUNNY     82  57  42 W7        30.13S
REDWOOD FALLS  SUNNY     85  56  37 W10       30.06F
TRACY          SUNNY     84  59  42 NW5       30.10S
WINDOM         SUNNY     84  57  39 W7        30.10F
WORTHINGTON    SUNNY     82  63  51 W9        30.12S
$$

IAZ001>003-012>014-020>022-031-032-NEZ013-014-SDZ071-310000-
NORTHWEST IOWA

CITY           SKY/WX    TMP DP  RH WIND       PRES   REMARKS
DENISON        HAZE      82  66  57 SW9       30.11F VSB 1/4
ESTHERVILLE    MOSUNNY   82  63  52 W8        30.10F
SIOUX CITY     SUNNY     86  68  54 SW7       30.10F
SPENCER        SUNNY     86  61  42 W7        30.11F
$$

ABBREVIATIONS USED IN REMARKS
   TC - TEMPERATURE IN CELSIUS
  WCI - WIND CHILL INDEX
   HX - HEAT INDEX
  VSB - VISIBILITY



USA.gov is the U.S. government's official web portal to all federal, state and local government web resources and services.